Regional Weather Roundup
Issued by NWS

Home | Current Version | Previous Version | Graphics & Text | Print | Product List | Glossary On
Versions: 1 2 3 4 5 6 7 8 9 10 11 12 13 14 15 16 17 18 19 20 21 22 23 24 25 26 27 28 29 30 31 32 33 34 35 36 37 38 39 40 41 42 43 44 45 46 47 48 49
000
ASUS45 KBOU 161507
RWRCO

WEATHER ROUNDUP FOR COLORADO
NATIONAL WEATHER SERVICE DENVER/BOULDER CO
900 AM MDT TUE SEP 16 2014

NOTE: "FAIR" INDICATES FEW OR NO CLOUDS BELOW 12000 FEET WITH NO
SIGNIFICANT WEATHER AND/OR OBSTRUCTIONS TO VISIBILITY.

COZ001>005-013-030-031-161600-
...NORTHWEST COLORADO...

CITY           SKY/WX    TMP DP  RH WIND       PRES   REMARKS
CRAIG          SUNNY     55  41  59 CALM      30.31F
HAYDEN         MOSUNNY   55  37  50 SE14      30.32F
MEEKER         SUNNY     54  40  59 E5        30.32F
MOUNT WERNER   NOT AVBL
STEAMBOAT SPGS MOSUNNY   48  39  70 N6        30.34F
WALDEN         MOSUNNY   50  36  57 CALM      30.41S
$$

COZ006>008-011-161600-
...WEST CENTRAL VALLEYS...

CITY           SKY/WX    TMP DP  RH WIND       PRES   REMARKS
GRAND JUNCTION SUNNY     64  42  44 SE8       30.23S
MONTROSE       SUNNY     65  43  44 VRB3      30.31F
EAGLE          MOSUNNY   48  39  71 CALM      30.41F
RIFLE          SUNNY     56  41  57 CALM      30.30F
DELTA          SUNNY     64  43  45 E7        30.28S HAZE
NUCLA          NOT AVBL
$$

COZ017>023-064>068-161600-
...SOUTHWEST COLORADO...

CITY           SKY/WX    TMP DP  RH WIND       PRES   REMARKS
DURANGO        SUNNY     61  45  55 CALM      30.37S
CORTEZ         SUNNY     61  46  57 CALM      30.32S
PAGOSA SPRINGS SUNNY     60  42  51 CALM      30.43F
TELLURIDE      NOT AVBL
WOLF CREEK PAS SUNNY     46  37  71 NE3       30.68S
$$

COZ009-010-012-014-032>034-037-058>063-161600-
...CENTRAL COLORADO...

CITY           SKY/WX    TMP DP  RH WIND       PRES   REMARKS
ASPEN          MOSUNNY   51  38  60 CALM      30.41F
BUENA VISTA    SUNNY     54  39  57 N3        30.45S
COPPER MTN     MOSUNNY   52  30  43 W10       30.68S
BERTHOUD PASS  FAIR      43  41  93 NW22G28   30.68R
COTTONWOOD PAS SUNNY     57  36  44 CALM      30.55S
GUNNISON       SUNNY     48  36  61 CALM      30.49S
KREMMLING      SUNNY     43  36  75 CALM      30.44F
LEADVILLE      SUNNY     48  35  60 CALM      30.54F
MONARCH PASS   SUNNY     43  32  65 W14       30.79R
SALIDA         SUNNY     56  41  57 NW9       30.49F
SUNLIGHT       SUNNY     54  34  47 CALM      30.61S
WILKERSON PASS NOT AVBL
$$

COZ069>075-161600-
...SAN LUIS VALLEY/SANGRE DE CRISTO MOUNTAINS...

CITY           SKY/WX    TMP DP  RH WIND       PRES   REMARKS
ALAMOSA        SUNNY     54  44  69 W6        30.43F
LA VETA PASS   NOT AVBL
SAGUACHE       SUNNY     57  39  51 NW10      30.46S
$$

COZ035-036-038>040-161600-
...NORTHERN COLORADO FRONT RANGE...

CITY           SKY/WX    TMP DP  RH WIND       PRES   REMARKS
DENVER INTL AP MOSUNNY   70  45  40 SW14      30.20R
DMNS CITY PARK   N/A     68  46  45 SW7       30.19S
AURORA         MOSUNNY   68  46  45 SW12      30.22S
FRONT RANGE AP MOSUNNY   72  45  37 SW12      30.21R
ERIE MUNI ARPT SUNNY     67  43  42 CALM      30.18S
BOULDER MUN AP SUNNY     68  45  42 CALM      30.18S
CENTENNIAL     MOSUNNY   70  43  37 SW14      30.23S
BROOMFIELD     MOSUNNY   73  45  35 N7        30.22R
FORT COLLINS   SUNNY     57  52  82 CALM      30.18S
LONGMONT       SUNNY     68  50  52 CALM      30.18S
$$

COZ041-046-047-076>085-087-088-161600-
...PIKES PEAK/PALMER DIVIDE AND SOUTHERN FOOTHILLS...

CITY           SKY/WX    TMP DP  RH WIND       PRES   REMARKS
COLO. SPRINGS  MOSUNNY   61  49  64 SW5       30.27F
A. F. ACADEMY  SUNNY     69  44  40 VRB5      30.29S
ELLICOTT       NOT AVBL
FALCON         SUNNY     73  35  25 NW10G16   30.31S
FORT CARSON    SUNNY     58  51  76 CALM      30.25F
LIMON          SUNNY     59  51  75 VRB3      30.21F
MONUMENT HILL  SUNNY     68  39  34 W8        30.31S
TRINIDAD       SUNNY     64  49  57 SW16      30.27S
$$

COZ042>045-048>051-090-091-161600-
...NORTHEAST COLORADO...

CITY           SKY/WX    TMP DP  RH WIND       PRES   REMARKS
GREELEY ARPT   SUNNY     57  46  67 CALM      30.16F
AKRON          SUNNY     62  52  69 W16       30.13S
BURLINGTON     SUNNY     61  52  72 SW18G26   30.16F
WRAY           MOSUNNY   64  55  73 S10       30.13F
STERLING       SUNNY     61  55  82 SW9       30.10F
HOLYOKE        MOSUNNY   61  54  77 S9        30.11F
FORT MORGAN    SUNNY     56  51  84 W9        30.14S
$$

COZ086-089-092>099-161600-
...SOUTHEAST COLORADO...

CITY           SKY/WX    TMP DP  RH WIND       PRES   REMARKS
PUEBLO         MOSUNNY   60  52  74 W3        30.21F
LA JUNTA       SUNNY     59  52  77 SW6       30.20F
LAMAR          SUNNY     63  54  72 SW6       30.17S
SPRINGFIELD      N/A     62  55  77 SW9       30.21F
$$



USA.gov is the U.S. government's official web portal to all federal, state and local government web resources and services.